Tracking 29892 objects as of 21-Nov-2024
HD Live streaming from Space Station
objects crossing your sky now

NOAA 16 DEB

Track NOAA 16 DEB now!
10-day predictions


NORAD ID: 41526
Int'l Code: 2000-055NA
Perigee: 756.4 km
Apogee: 788.6 km
Inclination: 99.0 °
Period: 100.1 minutes
Semi major axis: 7143 km
RCS: Unknown
Launch date: September 21, 2000
Source: United States (US)
Launch site: AIR FORCE WESTERN TEST RANGE (AFWTR)

Note: This is SATELLITE DEBRIS
Your satellite tracking list
Your tracking list is empty




NASA's NSSDC Master Catalog

Two Line Element Set (TLE):
1 41526U 00055NA  24325.22879415  .00013200  00000-0  43656-2 0  9994
2 41526  98.9992 123.8997 0022518 103.1836 257.1863 14.37926012449740
Source of the keplerian elements: AFSPC